Regional Weather Roundup
Issued by NWS San Angelo, TX

Home | Current Version | Previous Version | Text Only | Print | Product List | Glossary On
Versions: 1 2 3 4 5 6 7 8 9 10 11 12 13 14 15 16 17 18 19 20 21 22 23 24 25 26 27 28 29 30 31 32 33 34 35 36 37 38 39 40 41 42 43 44 45 46 47 48 49 50
000
ASUS44 KSJT 020302
RWRSJT
WEST CENTRAL TEXAS REGIONAL WEATHER ROUNDUP
NATIONAL WEATHER SERVICE SAN ANGELO TX
900 PM CST SUN FEB 01 2015

NOTE: "FAIR" INDICATES FEW OR NO CLOUDS BELOW 12,000 FEET WITH NO
SIGNIFICANT WEATHER AND/OR OBSTRUCTIONS TO VISIBILITY.

TXZ049-054-064>066-071>073-076>078-098-099-113-114-127-128-139-140-
154-155-168>170-020400
...LOCATIONS ACROSS WEST CENTRAL TEXAS...

CITY           SKY/WX    TMP DP  RH WIND       PRES   REMARKS
SAN ANGELO     CLEAR     42  34  73 NE8       30.26R WCI  37
ABILENE        CLEAR     40  27  59 N16G22    30.28R WCI  31
DYESS AFB      NOT AVBL
JUNCTION       CLEAR     46  33  60 NE9       30.22R
SWEETWATER     NOT AVBL
BROWNWOOD      PTCLDY    39  30  70 N7        30.25R WCI  34
COLEMAN        NOT AVBL
SONORA         NOT AVBL
OZONA          NOT AVBL
BRADY          CLEAR     39  30  70 N9        30.23R WCI  33
$$

TEXAS PANHANDLE/OKLAHOMA PANHANDLE

CITY           SKY/WX    TMP DP  RH WIND       PRES   REMARKS
AMARILLO       PTCLDY    26  19  74 NE6       30.29R WCI  19
BORGER         CLOUDY    29  16  58 N10       30.31R WCI  20
CANADIAN       CLOUDY    27  13  57 N14G20    30.34R WCI  15
DALHART        MOCLDY    30  20  66 NE8       30.28R WCI  22
DUMAS          CLOUDY    27  18  69 NE9       30.28R WCI  18
GUYMON         NOT AVBL
HEREFORD       NOT AVBL
PAMPA          NOT AVBL
PERRYTON       NOT AVBL
$$

SOUTHERN PANHANDLE/SOUTH PLAINS/ROLLING PLAINS

CITY           SKY/WX    TMP DP  RH WIND       PRES   REMARKS
LUBBOCK        MOCLDY    35  27  72 NE9       30.28R WCI  28
SNYDER         NOT AVBL
CHILDRESS      CLEAR     34  18  52 N13       30.35R WCI  25
SEMINOLE       NOT AVBL
$$

PERMIAN BASIN

CITY           SKY/WX    TMP DP  RH WIND       PRES   REMARKS
MIDLAND        CLEAR     42  35  76 NE9       30.24R WCI  37
ODESSA         PTCLDY    42  34  73 NE15      30.24R WCI  34
WINK           CLOUDY    46  35  65 NE8       30.23R
$$

FAR WEST/SOUTHWEST MOUNTAINS/TRANS PECOS

CITY           SKY/WX    TMP DP  RH WIND       PRES   REMARKS
ALPINE         NOT AVBL
DRYDEN           N/A     52  43  71 NE13      30.19R
EL PASO        PTCLDY    51  41  68 E9        30.14R
FORT STOCKTON  CLEAR     42  40  92 E7        30.23R WCI  38
GUADALUPE PASS CLOUDY    39  36  89 E22       30.20R WCI  29
MARFA          CLEAR     39  37  93 N6        30.20R WCI  35
PECOS          NOT AVBL
$$

DALLAS/FORT WORTH METROPLEX

CITY           SKY/WX    TMP DP  RH WIND       PRES   REMARKS
DFW AIRPORT    CLEAR     40  25  55 N14       30.24R WCI  32
FTW MEACHAM    CLEAR     42  27  55 NW18      30.25R WCI  34
DAL-EXECUTIVE  CLEAR     42  25  50 N18G24    30.22R WCI  34
GRAND PRAIRIE  CLEAR     42  31  64 N14G20    30.24R WCI  35
ADDISON        CLEAR     39  21  48 NW15G22   30.24R WCI  31
MESQUITE       CLEAR     41  26  54 N18G25    30.22  WCI  32
LANCASTER      CLEAR     41  26  57 N12G23    30.23R WCI  34
$$

NORTH CENTRAL TEXAS

CITY           SKY/WX    TMP DP  RH WIND       PRES   REMARKS
SHRMAN/DENISON CLEAR     36  26  68 NW20G25   30.26R WCI  25
GAINESVILLE    NOT AVBL
BRIDGEPORT     CLEAR     40  27  61 N14G20    30.29R WCI  32
DENTON         CLEAR     37  25  61 N14       30.27R WCI  28
WAXAHACHIE     CLEAR     40  31  70 NW10      30.23R WCI  34
GRANBURY       NOT AVBL
$$

WESTERN NORTH TEXAS

CITY           SKY/WX    TMP DP  RH WIND       PRES   REMARKS
WICHITA FALLS  CLEAR     34  21  59 N17       30.31R WCI  23
VERNON         NOT AVBL
BRECKENRIDGE   NOT AVBL
COMANCHE       CLEAR     40  29  65 N15G22    30.25R WCI  32
$$

CENTRAL AND SOUTH CENTRAL TEXAS

CITY           SKY/WX    TMP DP  RH WIND       PRES   REMARKS
AUSTIN/BERGSTM PTCLDY    51  36  56 N18       30.18R
WACO           CLEAR     43  29  57 N16       30.22R WCI  35
HILLSBORO      NOT AVBL
TEMPLE         CLEAR     45  28  53 N10       30.20R WCI  39
KILLEEN-GRAY   CLEAR     42  32  67 N9        30.22R WCI  36
FORT HOOD      CLEAR     44  31  61 N15       30.21R WCI  36
GEORGETOWN     CLEAR     46  32  57 N14G23    30.20R
LAGO VISTA     FAIR      47  33  58 N12G21    30.20R
SAN MARCOS     PTCLDY    52  36  54 N21       30.16R
NEW BRAUNFELS  CLEAR     54  40  59 N17G24    30.14R
RANDOLPH AFB   CLEAR     55  39  56 N18       30.13R
SAN ANTONIO    PTCLDY    56  41  57 N17G25    30.13R
STINSON        CLEAR     57  41  55 N16G31    30.11R
PLEASANTON     NOT AVBL
LA GRANGE      NOT AVBL
GIDDINGS       PTCLDY    52  32  47 N17G29    30.20R
$$

EAST TEXAS

CITY           SKY/WX    TMP DP  RH WIND       PRES   REMARKS
PARIS          CLEAR     36  21  55 N21G29    30.20R WCI  24
CLARKSVILLE    NOT AVBL
TYLER          CLEAR     42  28  57 N18G25    30.17R WCI  34
LONGVIEW       CLEAR     43  28  55 NW16G26   30.15R WCI  35
PALESTINE      CLEAR     44  32  62 NW10G17   30.19R WCI  39
NACOGDOCHES    CLEAR     46  30  53 N16       30.14R WCI  40
$$

TEXAS HILL COUNTRY AND EDWARDS PLATEAU

CITY           SKY/WX    TMP DP  RH WIND       PRES   REMARKS
LLANO          NOT AVBL
HORSESHOE BAY  FAIR      47  32  55 N5        30.22R
KERRVILLE      CLEAR     49  39  68 N8        30.18R
FREDERICKSBRG  NOT AVBL
ROCKSPRINGS    NOT AVBL
HONDO          PTCLDY    55  42  61 NE23      30.14R
UVALDE         CLEAR     56  43  61 NE12G17   30.12R
DEL RIO        CLEAR     57  44  62 N16G22    30.16R
$$

SOUTHEAST TEXAS

CITY           SKY/WX    TMP DP  RH WIND       PRES   REMARKS
COLLEGE STN    PTCLDY    51  35  54 N20G26    30.17R
CALDWELL       NOT AVBL
CROCKETT       NOT AVBL
BRENHAM        MOCLDY    54  38  56 N17       30.16R
HUNTSVILLE     PTCLDY    51  37  58 N10G21    30.15R
CONROE         CLOUDY    54  38  54 N22G32    30.12R
HOUSTON BUSH   CLOUDY    57  42  57 N22G30    30.10R
HOUSTON HOBBY  CLOUDY    60  46  59 N21G28    30.07R
PERLAND        CLOUDY    62  48  60 N16G22    30.07R
WHARTON        NOT AVBL
$$

THE UPPER TEXAS COAST

CITY           SKY/WX    TMP DP  RH WIND       PRES   REMARKS
ORANGE         CLOUDY    61  55  82 NW8G17    30.04R
PORT ARTHUR    CLOUDY    62  51  67 NW15      30.03R
GALVESTON      CLOUDY    63  53  70 N23G30    30.04R
ANGLETON       CLOUDY    62  50  64 N17       30.05R
BAY CITY       MOCLDY    63  53  70 N15G23    30.06R
$$

TEXAS COASTAL BEND, RIO GRANDE PLAINS DEEP SOUTH TEXAS

CITY           SKY/WX    TMP DP  RH WIND       PRES   REMARKS
VICTORIA       CLOUDY    61  48  62 N18G26    30.09R
BEEVILLE       FAIR      64  51  64 N17G30    30.06R
ROCKPORT       CLOUDY    66  54  65 N16G25    30.05R
PORT ARANSAS   NOT AVBL
PORT LAVACA    CLOUDY    61  50  67 N21G28    30.07R
CORPUS CHRISTI CLOUDY    69  57  65 N20       30.02R
KINGSVILLE NAS CLOUDY    71  61  70 N15G22    30.03R
COTULLA        PTCLDY    64  49  57 NE16G25   30.09R
LAREDO         CLOUDY    66  57  72 N6        30.05R
BROWNSVILLE    LGT RAIN  68  64  87 SW5       30.00R
PORT ISABEL    LGT RAIN  68  63  84 S6        29.99R
HEBBRONVILLE   NOT AVBL
MCALLEN        LGT RAIN  69  64  84 SW5       30.00R
WESLACO        NOT AVBL
FALFURRIAS     CLOUDY    68  58  69 NE3       30.01R
EDINBURG       NOT AVBL
$$


USA.gov is the U.S. government's official web portal to all federal, state and local government web resources and services.